Location: Gönnheim
(49.4488°N, 8.2383°E)
Time: 16:42:17
(UTC+00:00)

Daily predictions for brighter satellites

Satellite Brightness Start Highest point End
(mag) Time Altitude Azimuth Time Altitude Azimuth Time Altitude Azimuth
Cosmos 839 Rocket 4.5 19:39:38 10° SW 19:45:54 80° NW 19:53:24 10° NE
Meteor 1-25 Rocket 4.2 19:42:09 10° N 19:47:44 78° ENE 19:53:16 10° SSE
Cosmos 2074 Rocket 4.1 19:42:00 10° N 19:48:16 89° E 19:54:28 10° S
Lacrosse 5 rocket 1.3 19:45:04 10° NW 19:48:37 59° NNE 19:52:03 10° ESE
SPOT 5 3.0 19:47:48 10° S 19:52:07 67° WSW 19:56:25 10° NNW
Cosmos 1814 Rocket 4.0 19:47:17 10° S 19:52:20 64° ESE 19:57:28 10° NNE
Cosmos 1867 4.2 19:49:44 10° NNW 19:55:03 48° NE 20:00:18 10° ESE
Alouette 2 Rocket 3.6 19:52:29 10° NNW 19:56:06 72° WSW 20:00:32 10° S
Cosmos-2242 3.8 19:52:25 10° SSE 19:56:12 32° E 20:00:01 10° NNE
Nadezhda 1 Rocket 4.1 19:50:26 10° S 19:56:22 58° E 20:02:25 10° NNE
Cosmos 1656 3.9 19:51:48 10° NNW 19:57:28 75° WSW 20:03:00 10° SSE
Cosmos 2154 Rocket 4.1 19:51:56 10° N 19:58:10 89° E 20:04:23 10° S
Cosmos 2184 Rocket 4.2 19:54:55 10° NNW 20:01:10 78° W 20:07:28 10° S
SeaSat 1 4.0 19:58:14 10° E 20:02:12 25° NE 20:06:12 10° N
Cosmos 1933 3.2 19:59:20 10° S 20:03:10 67° E 20:07:01 10° NNE
Okean O Rocket 1.8 19:59:03 10° S 20:03:24 72° WSW 20:07:45 10° NNW
Iridium 4 Rocket 3.6 20:00:44 10° N 20:05:50 82° E 20:11:21 10° S
Meteor PRIRODA 4.4 20:03:23 10° S 20:06:09 37° W 20:08:57 10° NNW
SPOT 3 Rocket 4.2 20:03:08 10° SE 20:07:55 41° ENE 20:12:44 10° N
Okean-O 2.7 20:04:31 10° SSE 20:08:55 86° W 20:13:20 10° NNW
ERS-1 Rocket 3.0 20:05:57 10° SSE 20:10:58 84° WSW 20:16:01 10° NNW
Cosmos 1743 2.5 20:14:11 10° NNW 20:17:37 75° W 20:21:00 10° S
ISS -3.4 20:16:17 10° WNW 20:19:38 66° N 20:22:59 10° E
Lacrosse 4 Rocket 4.1 20:18:25 10° W 20:21:37 23° NW 20:24:53 10° NNE
Cosmos 2084 Rocket 4.4 20:18:10 10° S 20:21:42 26° ESE 20:25:14 10° ENE
BREEZE-M R/B 4.5 19:57:23 10° W 20:21:59 87° S 20:26:54 10° E
Spot 2 Rocket 3.5 20:17:45 10° SSE 20:22:45 78° ENE 20:27:48 10° NNW
ARIANE 6 FM1 Upper Stage 2.5 20:19:31 10° SW 20:23:30 72° SE 20:27:32 10° NE
NOSS 3-1 (C) 3.4 20:19:14 10° S 20:23:37 39° ESE 20:28:49 10° NE
IKONOS-2 4.4 20:23:24 10° NNE 20:27:29 63° ESE 20:31:34 10° S
Meteor 1-5 Rocket 4.5 20:22:54 10° NNW 20:28:54 82° W 20:34:51 10° S
CZ-4 R/B 4.3 20:28:04 10° WSW 20:29:28 12° W 20:30:53 10° WNW
Cosmos 1833 Rocket 2.7 20:24:17 10° SSW 20:29:50 63° ESE 20:35:26 10° NNE
Cosmos 1356 Rocket 4.2 20:28:39 14° SSE 20:31:42 34° E 20:35:26 10° NNE
Cosmos 1733 2.6 20:30:50 10° N 20:33:55 70° ENE 20:36:07 17° SSE
SL-24 R/B 4.5 20:30:53 14° SSE 20:34:26 72° ENE 20:38:35 10° N
Cosmos 158 Rocket 4.0 20:33:26 10° SSW 20:38:44 87° ESE 20:44:09 10° NNE
USA 245 3.8 20:35:19 12° S 20:39:07 79° WSW 20:44:18 10° NNW
Cosmos 1900 4.4 20:34:19 10° NW 20:39:26 83° SW 20:43:28 17° SSE
Cosmos 2218 Rocket 4.2 20:34:32 10° N 20:40:52 61° ENE 20:46:01 16° SSE
Cosmos 2058 Rocket 3.7 20:39:23 10° SSW 20:43:48 59° WNW 20:48:12 10° N
Helios 1A 4.2 20:43:58 10° N 20:47:48 42° WNW 20:51:36 10° SW
Cosmos 1805 4.4 20:46:13 10° NNE 20:49:08 25° ENE 20:50:42 18° ESE
PSLV R/B 3.2 20:49:41 20° SSE 20:51:46 84° WSW 20:55:02 10° NNW
Cosmos 1812 Rocket 3.8 20:48:57 18° SSE 20:51:56 49° E 20:56:07 10° NNE
NOSS 3-1 (A) 3.8 20:50:27 16° SSE 20:53:21 29° ESE 20:58:07 10° ENE
Cosmos 1980 Rocket 2.4 20:47:50 10° NNW 20:53:23 61° ENE 20:57:27 19° SE
Terra 3.0 20:50:46 10° SSW 20:55:08 38° W 20:59:33 10° NNW
ATLAS CENTAUR R/B 1.6 20:51:44 10° SW 20:55:24 62° NW 20:59:13 10° NE
USA 234 3.2 20:50:19 10° ENE 20:56:54 80° SE 21:03:27 10° SW
Cosmos 1315 Rocket 3.2 20:55:12 22° SSE 20:57:21 43° E 21:01:04 10° NNE
NOSS 7 (H) 4.3 20:55:11 10° NW 20:58:04 63° SW 20:59:35 27° SSE
Cosmos 1959 Rocket 4.5 20:52:41 10° N 20:58:54 76° E 21:03:44 18° SSE
BREEZE-M DEB (TANK) 4.5 20:37:20 10° W 20:59:22 89° N 21:04:35 10° E
Meteor 1-26 Rocket 4.4 20:54:34 10° S 21:00:27 90° E 21:06:30 10° NNE
Cosmos 2208 Rocket 4.1 20:55:11 10° S 21:00:28 60° ESE 21:05:43 10° NNE
Cosmos 2181 Rocket 4.1 20:58:42 15° S 21:03:51 62° E 21:10:08 10° NNE
SL-16 R/B 3.9 20:59:32 10° NNW 21:04:09 24° NE 21:08:44 10° E
BlueWalker 3 2.1 21:05:09 10° WNW 21:08:41 50° SSW 21:10:12 29° SSE
SL-24 R/B 4.2 21:05:39 10° NNE 21:09:56 59° ESE 21:12:50 21° S
Cosmos 1125 Rocket 4.2 21:04:56 10° NNW 21:10:00 48° WSW 21:14:02 16° S
Meteor 2-10 4.2 21:04:20 10° NNW 21:10:04 87° ENE 21:13:58 21° SSE
Cosmos 1346 Rocket 4.3 21:08:13 10° NNW 21:11:28 29° W 21:14:32 11° SSW
Cosmos 2322 Rocket 4.2 21:08:47 10° N 21:12:52 20° NE 21:16:55 10° E
Cosmos 2366 rocket 4.2 21:09:45 10° NNW 21:16:08 76° W 21:21:08 17° S
SL-24 DEB 4.2 21:14:17 21° S 21:17:19 83° W 21:21:54 10° N
CZ-4C R/B 4.3 21:16:10 10° NE 21:19:11 25° E 21:19:42 24° ESE
Meteor 1-14 Rocket 4.2 21:14:35 10° N 21:20:13 79° ENE 21:23:50 24° SSE
Ariane Rocket 3.5 21:16:59 17° S 21:20:46 55° W 21:25:47 10° NNW
Cosmos 44 4.1 21:18:24 10° NW 21:22:40 39° WSW 21:25:13 22° S
Cosmos 1238 Rocket 2.4 21:22:13 26° S 21:24:08 86° E 21:27:27 10° N
SL-8 Rocket 4.4 21:18:37 10° NNW 21:24:40 59° W 21:29:41 15° SSW
Cosmos 2298 Rocket 4.1 21:19:27 10° NNW 21:24:48 80° WSW 21:27:57 25° SSE
Cosmos 1697 Rocket 3.5 21:20:09 10° NW 21:25:26 42° WSW 21:29:17 18° S
Nadezhda 3 Rocket 4.4 21:21:58 23° SSE 21:25:31 46° E 21:31:26 10° NNE
Lacrosse 5 rocket 2.4 21:22:55 10° WNW 21:25:47 23° SW 21:26:34 21° SSW
ARIANE 5 R/B 4.0 21:23:51 18° ESE 21:26:00 27° ENE 21:29:42 10° N
Cosmos 1570 Rocket 4.4 21:21:46 10° SSW 21:26:58 67° WNW 21:32:15 10° NNE
CENTAUR R/B 4.3 21:24:50 10° NW 21:31:58 40° NNE 21:40:17 10° E
Cosmos 2360 Rocket 4.1 21:28:23 10° N 21:32:42 22° NE 21:37:00 10° E
ATLAS 3B R/B 3.8 21:30:07 22° SE 21:32:52 28° ESE 21:39:10 10° NE
Meteor 2-6 Rocket 4.3 21:30:19 16° S 21:35:02 88° W 21:40:48 10° NNE
Cosmos 1536 2.6 21:32:15 10° N 21:36:05 90° W 21:37:32 36° S
Cosmos 2369 3.7 21:32:39 10° NNW 21:38:21 82° ENE 21:41:29 28° SSE
Cosmos 1867 4.5 21:33:31 10° NW 21:38:33 38° WSW 21:41:23 22° S
SeaSat 1 2.5 21:36:40 28° SSE 21:39:14 70° WSW 21:44:09 10° NNW
Cosmos 2221 2.5 21:37:30 23° SSW 21:40:01 74° WNW 21:44:12 10° N
Cosmos 405 Rocket 3.3 21:37:41 10° N 21:40:54 36° ENE 21:41:40 32° ESE
Cosmos 2150 Rocket 4.4 21:35:44 10° NNW 21:41:03 59° WSW 21:44:04 25° S
Okean 1 3.5 21:42:38 25° SSW 21:44:34 61° WNW 21:48:13 10° N
Cosmos 2082 Rocket 2.2 21:42:04 23° S 21:45:34 62° ESE 21:51:07 10° NE
Cosmos 1674 2.4 21:48:35 40° NNE 21:48:35 40° NNE 21:50:09 10° N
Cosmos 773 Rocket 4.3 21:51:32 12° SW 21:56:18 66° WNW 22:01:25 10° NNE
ISS -3.2 21:53:09 10° WNW 21:56:12 41° SW 21:56:12 41° SW
Okean 3 Rocket 4.0 21:53:19 10° N 21:57:38 50° ENE 21:59:09 34° SE
Meteor 1-10 Rocket 4.3 21:54:20 26° S 21:57:46 79° E 22:03:37 10° NNE
COBE Rocket 3.9 21:53:06 10° NNE 21:58:15 82° ESE 22:00:56 29° S
Cosmos 2239 Rocket 4.5 21:53:09 10° N 21:59:24 85° W 22:02:47 29° S
Landsat 5 4.4 21:55:41 10° NNE 21:59:29 33° E 22:00:10 31° ESE
Cosmos 220 Rocket 4.2 21:57:21 21° SW 21:59:58 64° WNW 22:04:01 10° NNE
Cosmos 2084 Rocket 4.2 21:56:08 10° WSW 22:00:19 53° NW 22:04:29 10° NE
Cosmos 1766 Rocket 3.6 21:56:07 10° NNW 22:00:32 74° W 22:02:12 37° S
COSMOS 2406 3.4 21:59:10 31° S 22:01:41 53° ESE 22:07:14 10° NE
USA 59 Rocket 0.0 22:10:23 37° E 22:10:23 37° E 22:12:30 10° NE
Cosmos 2333 Rocket 3.2 22:06:42 10° NNW 22:12:08 41° NE 22:15:53 18° ESE
MetOp-A 4.0 22:10:43 36° SSE 22:12:54 84° ENE 22:18:06 10° NNW
NOSS 3-1 (C) 4.2 22:09:25 10° WSW 22:14:13 45° NW 22:20:08 10° NE
Cosmos 1151 Rocket 4.2 22:19:28 25° ESE 22:20:06 26° E 22:23:38 10° NNE
NOSS 2-1 (E) 3.3 22:21:20 43° E 22:21:20 43° E 22:23:42 10° NE
ALOS 2 3.1 22:19:44 34° ESE 22:21:13 49° ENE 22:25:28 10° N
Meteor 2-13 Rocket 4.4 22:19:05 32° S 22:22:07 77° E 22:28:15 10° NNE
PKM 4.3 22:19:37 10° W 22:22:22 55° NNW 22:26:59 10° ENE
Cosmos 2219 Rocket 3.8 22:22:59 10° NNW 22:27:51 29° NE 22:32:40 10° ESE
ATLAS CENTAUR R/B 4.3 22:29:58 10° WNW 22:32:17 15° NNW 22:34:37 10° NNE
Meteor 2-4 Rocket 3.9 22:30:52 36° SSE 22:33:01 59° E 22:38:44 10° NNE
Meteor 1-27 Rocket 3.7 22:30:54 33° SSW 22:33:34 85° WNW 22:39:08 10° N
NOSS 2-1 (D) 2.6 22:36:13 89° NW 22:36:13 89° NW 22:39:14 10° NE
Cosmos 1980 Rocket 3.6 22:32:28 10° NW 22:36:58 25° WSW 22:39:12 20° SW
Sich 1 2.9 22:33:11 10° N 22:37:27 75° E 22:38:23 52° SSE
USA 234 4.0 22:33:25 10° ENE 22:39:45 54° NNW 22:46:05 10° W
Genesis I 3.3 22:38:22 10° NW 22:40:24 45° NW 22:40:24 45° NW
NOSS 3-1 (A) 3.8 22:38:49 10° WSW 22:43:41 55° NW 22:49:40 10° NE
Meteor 2-15 4.5 22:38:28 10° NNW 22:44:33 71° W 22:47:14 35° S
PSLV R/B 4.0 22:42:22 10° NNE 22:46:21 41° E 22:46:52 40° ESE
SL-16 R/B 2.1 22:43:12 10° NNW 22:48:54 80° WSW 22:51:05 39° SSE
Cosmos 1975 3.1 22:46:15 10° NNW 22:49:47 45° W 22:50:13 43° WSW
Cosmos 1707 2.3 22:51:13 76° E 22:51:13 76° E 22:54:31 10° NNE
Cosmos 1538 Rocket 3.9 22:50:41 41° SSW 22:52:33 82° ESE 22:57:43 10° NNE
Cosmos 1500 Rocket 3.4 22:48:10 10° N 22:52:33 89° E 22:53:33 53° S
NOSS 2-1 (C) 3.2 22:55:40 50° W 22:56:09 58° NW 22:59:07 10° NE
Cosmos 2322 Rocket 2.2 22:52:11 10° NNW 22:57:53 77° ENE 23:00:25 34° SE
Spot 4 4.0 22:56:44 43° SSW 22:58:04 60° WSW 23:02:48 10° NNW
Cosmos 1633 Rocket 4.5 22:55:25 10° N 22:59:13 28° ENE 23:00:47 23° ESE
Cosmos 1408 Rocket 3.7 22:57:09 10° NNW 23:01:27 62° W 23:02:20 49° SSW
Meteor 2-15 Rocket 4.5 22:55:22 10° NNW 23:01:28 72° W 23:04:01 37° S
ARIANE 5 R/B 3.5 23:01:14 32° SW 23:02:13 36° W 23:06:16 10° NNW
Cosmos 1766 4.2 23:02:05 10° NNW 23:05:09 29° W 23:05:17 29° W
Cosmos 1908 3.6 23:03:29 10° NNW 23:06:26 41° W 23:06:26 41° W
Cosmos 1066 Rocket 4.3 23:04:55 40° SSE 23:06:57 70° E 23:12:41 10° NNE
Cosmos 1470 2.5 23:03:40 10° NNW 23:07:12 64° W 23:07:19 63° WSW
Cosmos 1805 Rocket 3.6 23:04:13 10° NNW 23:08:38 68° W 23:09:35 51° SSW
Cosmos 2278 4.0 23:09:30 10° NW 23:14:58 52° WSW 23:16:39 39° SSW
GP-B 3.1 23:11:11 10° N 23:15:36 71° E 23:16:31 52° SSE
Meteor 1-18 Rocket 4.2 23:14:33 39° S 23:16:50 87° E 23:22:46 10° NNE
Exosat Rocket 3.6 23:11:57 10° NNW 23:16:57 64° WSW 23:18:24 44° S
Cosmos 2360 Rocket 2.1 23:11:49 10° NNW 23:17:29 89° ENE 23:19:46 38° SSE
Cosmos 2173 Rocket 4.5 23:12:17 10° N 23:18:32 54° ENE 23:21:47 28° SE
ATLAS 3B R/B 3.0 23:17:16 20° SW 23:22:51 84° NW 23:30:47 10° NE
USA 229 DEB 3.4 23:20:46 34° SSW 23:23:39 77° SE 23:30:26 10° NE
CENTAUR R/B 3.3 23:15:29 10° NW 23:23:40 88° NE 23:31:24 17° SE
USA 229 3.4 23:20:54 34° SSW 23:23:44 76° SE 23:30:30 10° NE
Cosmos 1328 Rocket 4.2 23:23:10 36° ESE 23:23:58 40° E 23:28:01 10° NNE
Spot 1 4.2 23:20:03 10° N 23:24:18 68° WNW 23:25:34 44° SW
ASTEX 1 3.4 23:19:40 10° N 23:24:38 74° E 23:26:06 46° SSE
Cosmos 1743 Rocket 3.8 23:22:30 10° NNW 23:26:53 59° W 23:27:46 48° SW
GEOS 3 Rocket 4.5 23:22:16 10° ESE 23:27:08 47° NE 23:32:03 10° NW
Cosmos 2082 Rocket 3.9 23:25:12 10° WSW 23:30:03 29° NW 23:34:56 10° NNE
Cosmos 1605 Rocket 4.5 23:26:37 10° NNW 23:32:41 50° W 23:35:18 31° SW
Celestis-02/Orion 38 4.5 23:31:28 42° SSE 23:33:11 74° WSW 23:38:17 10° NNW
Cosmos 1842 4.2 23:36:29 29° W 23:36:56 30° WNW 23:40:03 10° N
Cosmos 1420 Rocket 4.1 23:36:37 10° NNW 23:41:52 64° WSW 23:43:26 43° S
Cosmos 2112 Rocket 4.1 23:41:11 43° SSE 23:42:46 62° ESE 23:47:56 10° NNE
Cosmos 1455 2.4 23:44:40 10° N 23:47:02 43° NE 23:47:02 43° NE
Cosmos 2237 Rocket 4.4 23:43:40 10° N 23:48:08 23° NE 23:52:37 10° E
Cosmos 1300 3.1 23:47:49 10° NNW 23:50:26 39° WNW 23:50:26 39° WNW
SL-14 R/B 3.5 23:53:45 47° SE 23:54:17 52° E 23:58:04 10° NNE
